الصفحة الرئيسية
METAR-TAF:

METAR-TAF

مطار :

Perry Stokes Airport

Trinidad, كولورادو, الولايات المتحدة

دائرة عرض: 37-16N, خط طول: 104-26W, ارتفاع: 1756 متر

مراقبة الطقس الحالي

تاريخ ووقت الإصدار 13 دقيقة قبل الساعة 09:54UTC
ريح 11 عقدة من الغرب
درجة الحرارة 4°درجة مئوية
الرطوبة 41%
ضغط 1015 hPa
الرؤية: 16.1 كم
سماء صافية

METAR: KTAD 230954Z AUTO 26011KT 10SM CLR 04/M08 A2998 RMK AO2 SLP110 T00391078

زمن: 04:07 (10:07 UTC)


TAF: مفقودة

أرصاد الطقس والتوقعات من أكثر من 4000 مطار (تقارير الطقس للمطار METAR والتنبؤ بالطقس بالمطارTAF).

المحطات المتاحة هي النقط الصفراء والحمراء على الخريطة.

حرك المؤشر فوق النقطة لمعرفة اسم المحطة.

ثم انقر لمعرفة أرصاد وتوقعات الطقس.

لتغيير الخارطة: اضغط على الأزرار الخضراء مع رمز الصليب الأسود للتكبير. على الزر الأخضر مع شرطة للتصغير، أو على الأسهم الخضراء للخرائط المجاورة.


METAR-TAF: